When you browse on this site, cookies collect data to enhance your experience and personalize the content and advertising you see.
Visit our Privacy Policy to learn more. By continuing to use the site, you agree to this use of cookies and data.
  • In Czech Republic
  • List of Countries
  • For 7 days
  • Water Temperature
  • Satellite Maps
  • Weather Map
  • Weather Widgets
  • user-avatar
    Login

    Hourly Weather Malanville

    Today, 17 November, Saturday

    Time Temperature Precipitation Wind Pressure Humidity
    00:00 +27°C° 0 mm 2 mps 744 mmHg 15%
    01:00 +26°C° 0 mm 2 mps 744 mmHg 16%
    02:00 +26°C° 0 mm 2 mps 744 mmHg 16%
    03:00 +25°C° 0 mm 2 mps 744 mmHg 17%
    04:00 +25°C° 0 mm 2 mps 744 mmHg 17%
    05:00 +24°C° 0 mm 2 mps 744 mmHg 18%
    06:00 +24°C° 0 mm 2 mps 744 mmHg 19%
    07:00 +27°C° 0 mm 2 mps 745 mmHg 17%
    08:00 +30°C° 0 mm 2 mps 745 mmHg 14%
    09:00 +34°C° 0 mm 3 mps 745 mmHg 12%
    10:00 +36°C° 0 mm 2 mps 745 mmHg 11%
    11:00 +38°C° 0 mm 2 mps 744 mmHg 10%
    12:00 +40°C° 0 mm 1 mps 744 mmHg 9%
    13:00 +41°C° 0 mm 1 mps 743 mmHg 8%
    14:00 +41°C° 0 mm 1 mps 742 mmHg 8%
    15:00 +41°C° 0 mm 1 mps 742 mmHg 8%
    16:00 +37°C° 0 mm 1 mps 742 mmHg 9%
    17:00 +34°C° 0 mm 1 mps 742 mmHg 11%
    18:00 +31°C° 0 mm 1 mps 742 mmHg 13%
    19:00 +31°C° 0 mm 1 mps 742 mmHg 13%
    20:00 +30°C° 0 mm 1 mps 743 mmHg 13%
    21:00 +30°C° 0 mm 1 mps 743 mmHg 14%
    22:00 +29°C° 0 mm 1 mps 743 mmHg 14%
    23:00 +29°C° 0 mm 1 mps 743 mmHg 14%

    Tomorrow, 18 November, Sunday

    Time Temperature Precipitation Wind Pressure Humidity
    00:00 +28°C° 0 mm 1 mps 743 mmHg 15%
    01:00 +28°C° 0 mm 1 mps 743 mmHg 16%
    02:00 +27°C° 0 mm 1 mps 743 mmHg 16%
    03:00 +26°C° 0 mm 1 mps 742 mmHg 17%
    04:00 +26°C° 0 mm 1 mps 743 mmHg 17%
    05:00 +26°C° 0 mm 1 mps 743 mmHg 18%
    06:00 +25°C° 0 mm 1 mps 743 mmHg 18%
    07:00 +29°C° 0 mm 2 mps 744 mmHg 16%
    08:00 +32°C° 0 mm 2 mps 744 mmHg 14%
    09:00 +36°C° 0 mm 2 mps 745 mmHg 12%
    10:00 +37°C° 0 mm 2 mps 744 mmHg 11%
    11:00 +39°C° 0 mm 2 mps 743 mmHg 10%
    12:00 +41°C° 0 mm 1 mps 743 mmHg 9%
    13:00 +41°C° 0 mm 1 mps 742 mmHg 9%
    14:00 +42°C° 0 mm 1 mps 741 mmHg 9%
    15:00 +42°C° 0 mm 1 mps 741 mmHg 8%
    16:00 +39°C° 0 mm 1 mps 741 mmHg 9%
    17:00 +35°C° 0 mm 1 mps 741 mmHg 11%
    18:00 +33°C° 0 mm 1 mps 741 mmHg 12%
    19:00 +32°C° 0 mm 2 mps 742 mmHg 12%
    20:00 +32°C° 0 mm 2 mps 742 mmHg 12%
    21:00 +31°C° 0 mm 2 mps 743 mmHg 13%
    22:00 +31°C° 0 mm 2 mps 743 mmHg 13%
    23:00 +30°C° 0 mm 2 mps 743 mmHg 13%

    Day after tomorrow, 19 November, Monday

    Time Temperature Precipitation Wind Pressure Humidity
    00:00 +30°C° 0 mm 2 mps 742 mmHg 13%
    01:00 +29°C° 0 mm 2 mps 742 mmHg 14%
    02:00 +29°C° 0 mm 2 mps 742 mmHg 14%
    03:00 +28°C° 0 mm 1 mps 741 mmHg 15%
    04:00 +27°C° 0 mm 1 mps 742 mmHg 16%
    05:00 +27°C° 0 mm 1 mps 742 mmHg 16%
    06:00 +26°C° 0 mm 1 mps 742 mmHg 17%
    07:00 +30°C° 0 mm 2 mps 743 mmHg 15%
    08:00 +34°C° 0 mm 2 mps 743 mmHg 13%
    09:00 +37°C° 0 mm 3 mps 744 mmHg 11%
    10:00 +39°C° 0 mm 3 mps 743 mmHg 10%
    11:00 +40°C° 0 mm 3 mps 743 mmHg 9%
    12:00 +43°C° 0 mm 3 mps 742 mmHg 9%
    13:00 +42°C° 0 mm 2 mps 741 mmHg 9%
    14:00 +42°C° 0 mm 1 mps 740 mmHg 9%
    15:00 +43°C° 0 mm 1 mps 739 mmHg 9%
    16:00 +40°C° 0 mm 1 mps 740 mmHg 11%
    17:00 +36°C° 0 mm 1 mps 740 mmHg 13%
    18:00 +33°C° 0 mm 1 mps 740 mmHg 15%
    19:00 +32°C° 0 mm 1 mps 741 mmHg 16%
    20:00 +32°C° 0 mm 1 mps 741 mmHg 16%
    21:00 +31°C° 0 mm 1 mps 742 mmHg 17%
    22:00 +31°C° 0 mm 1 mps 742 mmHg 18%
    23:00 +30°C° 0 mm 1 mps 742 mmHg 18%

    20 November, Tuesday

    Time Temperature Precipitation Wind Pressure Humidity
    00:00 +30°C° 0 mm 1 mps 742 mmHg 19%
    01:00 +29°C° 0 mm 1 mps 742 mmHg 19%
    02:00 +29°C° 0 mm 1 mps 741 mmHg 20%
    03:00 +28°C° 0 mm 1 mps 741 mmHg 20%
    04:00 +28°C° 0 mm 1 mps 742 mmHg 21%
    05:00 +27°C° 0 mm 1 mps 742 mmHg 22%
    06:00 +27°C° 0 mm 1 mps 742 mmHg 23%
    07:00 +30°C° 0 mm 1 mps 743 mmHg 21%
    08:00 +33°C° 0 mm 1 mps 744 mmHg 20%
    09:00 +36°C° 0 mm 1 mps 744 mmHg 18%
    10:00 +39°C° 0 mm 1 mps 744 mmHg 16%
    11:00 +40°C° 0 mm 2 mps 743 mmHg 14%
    12:00 +42°C° 0 mm 2 mps 742 mmHg 12%
    13:00 +42°C° 0 mm 2 mps 742 mmHg 11%
    14:00 +43°C° 0 mm 2 mps 741 mmHg 11%
    15:00 +43°C° 0 mm 2 mps 740 mmHg 11%
    16:00 +40°C° 0 mm 2 mps 741 mmHg 12%
    17:00 +38°C° 0 mm 2 mps 741 mmHg 14%
    18:00 +35°C° 0 mm 2 mps 741 mmHg 16%
    19:00 +35°C° 0 mm 2 mps 742 mmHg 17%
    20:00 +34°C° 0 mm 2 mps 742 mmHg 17%
    21:00 +32°C° 0 mm 2 mps 743 mmHg 18%
    22:00 +32°C° 0 mm 2 mps 743 mmHg 18%
    23:00 +31°C° 0 mm 2 mps 743 mmHg 18%

    21 November, Wednesday

    Time Temperature Precipitation Wind Pressure Humidity
    00:00 +30°C° 0 mm 2 mps 742 mmHg 18%
    01:00 +30°C° 0 mm 2 mps 742 mmHg 17%
    02:00 +29°C° 0 mm 2 mps 742 mmHg 17%
    03:00 +29°C° 0 mm 2 mps 742 mmHg 17%
    04:00 +28°C° 0 mm 2 mps 742 mmHg 17%
    05:00 +27°C° 0 mm 2 mps 742 mmHg 17%
    06:00 +27°C° 0 mm 1 mps 743 mmHg 18%
    07:00 +29°C° 0 mm 2 mps 743 mmHg 15%
    08:00 +32°C° 0 mm 2 mps 744 mmHg 13%
    09:00 +36°C° 0 mm 3 mps 744 mmHg 10%
    10:00 +38°C° 0 mm 3 mps 743 mmHg 9%
    11:00 +40°C° 0 mm 3 mps 743 mmHg 8%
    12:00 +43°C° 0 mm 3 mps 742 mmHg 7%
    13:00 +43°C° 0 mm 3 mps 741 mmHg 7%
    14:00 +43°C° 0 mm 3 mps 740 mmHg 7%
    15:00 +44°C° 0 mm 3 mps 740 mmHg 6%
    16:00 +40°C° 0 mm 2 mps 740 mmHg 8%
    17:00 +37°C° 0 mm 2 mps 741 mmHg 9%
    18:00 +33°C° 0 mm 1 mps 741 mmHg 10%
    19:00 +33°C° 0 mm 1 mps 741 mmHg 10%
    20:00 +32°C° 0 mm 1 mps 742 mmHg 10%
    21:00 +32°C° 0 mm 2 mps 742 mmHg 10%
    22:00 +31°C° 0 mm 2 mps 742 mmHg 11%
    23:00 +30°C° 0 mm 2 mps 742 mmHg 11%

    22 November, Thursday

    Time Temperature Precipitation Wind Pressure Humidity
    00:00 +29°C° 0 mm 2 mps 742 mmHg 11%
    01:00 +28°C° 0 mm 2 mps 742 mmHg 12%
    02:00 +27°C° 0 mm 2 mps 741 mmHg 12%
    03:00 +26°C° 0 mm 2 mps 741 mmHg 13%
    04:00 +26°C° 0 mm 2 mps 742 mmHg 13%
    05:00 +26°C° 0 mm 2 mps 742 mmHg 13%
    06:00 +26°C° 0 mm 2 mps 743 mmHg 13%
    07:00 +29°C° 0 mm 3 mps 743 mmHg 11%
    08:00 +31°C° 0 mm 3 mps 744 mmHg 10%
    09:00 +35°C° 0 mm 4 mps 744 mmHg 8%
    10:00 +37°C° 0 mm 4 mps 743 mmHg 7%
    11:00 +40°C° 0 mm 4 mps 743 mmHg 7%
    12:00 +42°C° 0 mm 4 mps 742 mmHg 6%
    13:00 +43°C° 0 mm 4 mps 741 mmHg 6%
    14:00 +43°C° 0 mm 3 mps 740 mmHg 6%
    15:00 +43°C° 0 mm 3 mps 740 mmHg 7%
    16:00 +40°C° 0 mm 3 mps 740 mmHg 8%
    17:00 +37°C° 0 mm 2 mps 740 mmHg 9%
    18:00 +34°C° 0 mm 2 mps 741 mmHg 11%
    19:00 +32°C° 0 mm 2 mps 741 mmHg 11%
    20:00 +32°C° 0 mm 2 mps 742 mmHg 11%
    21:00 +31°C° 0 mm 2 mps 742 mmHg 11%
    22:00 +30°C° 0 mm 2 mps 742 mmHg 11%
    23:00 +29°C° 0 mm 3 mps 742 mmHg 11%
    Show more